Location: Bergheim
(50.9593°N, 6.6400°E)
Time: 20:00:03
(UTC+01:00)

ISS - Pass Details

Date: 28 November 2019
Orbit: 411 x 421 km, 51.6° (Epoch: 10 December)

Event Time Altitude Azimuth Distance (km) Brightness Sun altitude
Rises 18:23:41 0° 251° (WSW) 2,353 1.8 -16.8°
Reaches altitude 10° 18:25:47 10° 250° (WSW) 1,494 0.3 -17.1°
Maximum altitude 18:29:08 78° 165° (SSE) 433 -3.8 -17.6°
Enters shadow 18:29:45 55° 92° (E) 510 -3.8 -17.7°
